Home   Weather   Singen (Hohentwiel)   Past weeks

Flag for Germany Past Weather in Singen (Hohentwiel), Baden-Württemberg, Germany — Yesterday and Last 2 Weeks

Now
25 °F

Light fog.


Feels Like: 25 °F
Forecast: 26 / 41 °F
Wind: 1 mph from East

Location: Zurich-Kloten

Current Time: Dec 10, 2016 at 4:10:14 am

Latest Report: Dec 10, 2016 at 3:20 am


Visibility: 1 mi

Pressure: 30.42 "Hg

Humidity: 93%

Dew Point: 23 °F

Location of Singen (Hohentwiel)Location

Past Weather in Singen (Hohentwiel) — Graph

°F

Singen (Hohentwiel) Temperature Yesterday

Maximum temperature yesterday: 43 °F (at 2:20 pm)
Minimum temperature yesterday: 21 °F (at 5:20 am)
Average temperature yesterday: 29 °F

High & Low Weather Summary for the Past Weeks

 TemperatureHumidityPressure
High46 °F (Nov 26, 2:20 pm)100% (Nov 26, 2:50 am)30.60 "Hg (Nov 26, 2:50 am)
Low19 °F (Nov 30, 3:50 am)45% (Nov 28, 1:50 pm)29.86 "Hg (Nov 25, 5:20 am)
Average33 °F87%30.30 "Hg
* Reported Nov 25 2:20 am — Dec 10 2:50 am, Singen (Hohentwiel), Weather by CustomWeather, © 2016

Note: Actual official high and low records may vary slightly from our data, if they occured in-between our weather recording intervals... More about our weather records

Advertising

Singen (Hohentwiel) Weather History for the Previous 24 Hours

Scroll right to see more
 ConditionsComfort  
Time TempWeatherWind HumidityBarometerVisibility
2:50 am
Sat, Dec 10
23 °FIce fog.1 mph100%30.42 "Hg1 mi
2:20 am25 °FIce fog.1 mph93%30.42 "Hg1 mi
1:50 am25 °FIce fog.1 mph100%30.42 "Hg2 mi
1:20 am25 °FIce fog.2 mph100%30.42 "Hg2 mi
12:50 am25 °FIce fog.3 mph100%30.42 "Hg2 mi
12:20 am25 °FLight fog.3 mph100%30.42 "Hg2 mi
11:50 pm
Fri, Dec 9
27 °FLight fog.1 mph100%30.45 "Hg2 mi
11:20 pm27 °FLight fog.1 mph93%30.45 "Hg1 mi
10:50 pm27 °FLight fog.1 mph100%30.45 "Hg1 mi
10:20 pm27 °FLight fog.3 mph100%30.45 "Hg1 mi
9:50 pm27 °FFog.2 mph100%30.45 "Hg2 mi
9:20 pm28 °FFog.3 mph93%30.48 "Hg2 mi
8:50 pm28 °FFog.2 mph93%30.45 "Hg2 mi
8:20 pm28 °FIce fog.3 mph93%30.48 "Hg2 mi
7:50 pm30 °FIce fog.2 mph93%30.48 "Hg2 mi
7:20 pm32 °FIce fog.3 mph93%30.48 "Hg3 mi
6:50 pm30 °FClear.1 mph100%30.48 "Hg4 mi
6:20 pm32 °FClear.3 mph100%30.48 "Hg4 mi
5:50 pm32 °FClear.5 mph93%30.48 "Hg4 mi
5:20 pm32 °FClear.5 mph100%30.48 "Hg4 mi
4:50 pm32 °FClear.5 mph93%30.48 "Hg4 mi
4:20 pm36 °FPassing clouds.5 mph87%30.48 "HgN/A
3:50 pm37 °FSunny.5 mph81%30.48 "Hg10 mi
3:20 pm37 °FSunny.5 mph87%30.48 "Hg10 mi
2:50 pm41 °FSunny.6 mph76%30.48 "Hg10 mi
2:20 pm43 °FSunny.2 mph71%30.48 "Hg10 mi
1:50 pm41 °FSunny.3 mph76%30.48 "Hg10 mi
1:20 pm39 °FSunny.2 mph75%30.51 "Hg10 mi
12:50 pm36 °FPassing clouds.3 mph87%30.51 "HgN/A
12:20 pm34 °FClear.2 mph87%30.54 "Hg6 mi
11:50 am32 °FClear.3 mph87%30.54 "Hg6 mi
11:20 am30 °FClear.3 mph93%30.54 "Hg5 mi
10:50 am30 °FFog.2 mph93%30.54 "Hg4 mi
10:20 am28 °FIce fog.No wind93%30.54 "Hg3 mi
9:50 am27 °FChilly.3 mph93%30.54 "Hg3 mi
9:20 am25 °FCold.3 mph100%30.54 "Hg3 mi
8:50 am23 °FFog.3 mph93%30.54 "Hg4 mi
8:20 am21 °FClear.3 mph93%30.54 "Hg5 mi
7:50 am21 °FFog.1 mph93%30.54 "Hg5 mi
7:20 am21 °FPassing clouds.1 mph100%30.54 "Hg4 mi
6:50 am21 °FClear.5 mph93%30.54 "Hg5 mi
6:20 am21 °FClear.2 mph93%30.54 "Hg6 mi
5:20 am21 °FClear.5 mph93%30.54 "Hg4 mi
4:50 am23 °FClear.No wind100%30.54 "Hg4 mi
4:20 am25 °FIce fog.2 mph93%30.54 "Hg3 mi
Weather by CustomWeather, © 2016

See weather overviewHow to use our weather pages